Погода в Яндобе

Россия / Чувашская Республика     55°43′27″N   46°58′27″E
темп.,
°C
ветер,
м/с
пор.,
м/с
влажн.,
%
обл.,
%
осадки,
мм/ч
давл.,
гПа
погр.,
м
13 апреля, вт
вт1300:00+2вюв3696100 0.0 103695
03:00+3юв36100100 0.0 1035100
06:00+3вюв36100100 0.0 103582
09:00+5юв36100100 0.1 1035113
12:00+11юв369988 0.0 1033144
15:00+16ююв367174 0.0 1031243
18:00+11ююв337048 0.0 103120
21:00+8ююв44745 0.0 103135
14 апреля, ср
ср1400:00+6ю337745 0.0 103025
03:00+6ю337495 0.0 103014
06:00+5ююв337261 0.0 103023
09:00+12ююв46605 0.0 1029251
12:00+17ююв56455 0.0 1027805
15:00+18ююв56440 0.0 10251010
18:00+14юв49701 0.0 1024189
21:00+11ююв48855 0.0 1024136
15 апреля, чт
чт1500:00+9ююв34880 0.0 102353
03:00+8ююв22890 0.0 102215
06:00+8ююв23900 0.0 102142
09:00+14ю34711 0.0 1021400
12:00+17ю235654 0.0 10191339
15:00+18зюз224982 0.1 1018924
18:00+15сз225998 0.0 101825
21:00
16 апреля, пт
пт1600:00+10с22785 0.0 101810
03:00+8с35925 0.0 101874
06:00+8ссв5895100 0.0 1019299
09:00+8св6887100 0.0 1020449
12:00+9св6981100 0.0 1021618
15:00+11св7771100 0.0 1021929
18:00+9св5873100 0.0 1022610
21:00+8св586976 0.0 1023850
17 апреля, сб
сб1700:00+4св389177 0.0 1024161
03:00+2св488262 0.0 1025143
06:00+2св387640 0.0 1025193
09:00+7св57515 0.0 1025711
12:00+10св56405 0.0 10251602
15:00+11ссв673951 0.0 10251883
18:00+8ссв595082 0.0 1026461
21:00+4св411575 0.0 1027294